Flag for U.S.A. Weather past 2 weeks in Scottsdale, Arizona, U.S.A.

Now
73 °F

Sunny.


Feels Like: 77 °F
Forecast: 64 / 84 °F
Wind: No wind

Location: Scottsdale Airport

Current Time: Oct 1, 2014 at 9:35:14 AM

Latest Report: Oct 1, 2014 at 8:53 AM


Visibility: 10 mi

Pressure: 29.78 "Hg

Humidity: 44%

Dew point: 50 °F

Location of ScottsdaleLocation

Historic Weather in Scottsdale — Graph

°F

Scottsdale temperature yesterday

Maximum temperature yesterday: 86 °F (at 2:53 PM)
Minimum temperature yesterday: 62 °F (at 6:53 AM)
Average temperature yesterday: 75 °F

Past Weeks' High & Low Weather Summary

 TemperatureHumidityPressure
High101 °F (Sep 24, 2:53 PM)93% (Sep 27, 9:53 PM)29.94 "Hg (Sep 27, 9:53 PM)
Low62 °F (Sep 30, 6:53 AM)15% (Sep 23, 4:53 PM)29.61 "Hg (Sep 27, 1:53 PM)
Average84 °F45%29.79 "Hg
* Reported Sep 16 7:53 AM — Oct 1 7:53 AM, Scottsdale, Weather by CustomWeather, © 2014

Note: Actual official high and low records may vary slightly from our data, if they occured in-between our weather recording intervals... More about our weather records

Advertising

Scottsdale weather history for previous 24 hours

 ConditionsComfort  
Time TempWeatherWind HumidityBarometerVisibility
7:53 AM
Oct 1
69 °FSunny.No wind59%29.78 "Hg10 mi
6:53 AM66 °FSunny.No wind59%29.76 "Hg10 mi
5:53 AM64 °FClear.No wind65%29.74 "Hg10 mi
4:53 AM65 °FClear.No wind61%29.73 "Hg10 mi
3:53 AM66 °FClear.No wind61%29.72 "Hg10 mi
2:53 AM66 °FClear.No wind59%29.71 "Hg10 mi
1:53 AM70 °FClear.No wind42%29.71 "Hg10 mi
12:53 AM71 °FClear.No wind45%29.72 "Hg10 mi
11:53 PM
Sep 30
70 °FClear.No wind51%29.72 "Hg10 mi
10:53 PM73 °FClear.3 mph44%29.72 "Hg10 mi
9:53 PM76 °FClear.No wind37%29.72 "Hg10 mi
8:53 PM78 °FClear.No wind32%29.73 "Hg10 mi
7:53 PM79 °FClear.No wind30%29.73 "Hg10 mi
6:53 PM82 °FClear.3 mph23%29.72 "Hg10 mi
5:53 PM85 °FSunny.3 mph19%29.72 "Hg10 mi
4:53 PM86 °FSunny.No wind18%29.72 "Hg10 mi
3:53 PM86 °FSunny.No wind19%29.72 "Hg10 mi
2:53 PM86 °FSunny.5 mph20%29.74 "Hg10 mi
1:53 PM85 °FSunny.3 mph23%29.77 "Hg10 mi
12:53 PM84 °FSunny.6 mph25%29.79 "Hg10 mi
11:53 AM82 °FSunny.3 mph24%29.81 "Hg10 mi
10:53 AM80 °FSunny.No wind29%29.82 "Hg10 mi
9:53 AM77 °FSunny.No wind39%29.84 "Hg10 mi
Weather by CustomWeather, © 2014

See weather overviewHow to use our weather pages